Regional Weather Roundup
Issued by NWS

Current Version | Previous Version | Text Only | Print | Product List | Glossary On
Versions: 1 2 3 4 5 6 7 8 9 10 11 12 13 14 15 16 17 18 19 20 21 22 23 24 25 26 27 28 29 30 31 32 33 34 35 36 37 38 39 40 41 42 43 44 45 46 47 48 49 50
000
ASUS43 KDTX 040501
RWRMI
MICHIGAN HOURLY REGIONAL WEATHER ROUNDUP
NATIONAL WEATHER SERVICE DETROIT/PONTIAC MI
100 AM EDT WED MAY 04 2016

NOTE: "FAIR" INDICATES FEW OR NO CLOUDS BELOW 12,000 FEET WITH NO
SIGNIFICANT WEATHER AND/OR OBSTRUCTION TO VISIBILITY.

MIZ047>049-052>055-059>063-066>070-074>076-081>083-040600-
SOUTHEAST LOWER MICHIGAN

CITY           SKY/WX    TMP DP  RH WIND       PRES   REMARKS
ADRIAN         CLOUDY    51  43  74 SW9       29.74F
ALMA           PTCLDY    53  37  55 S9        29.66F
ANN ARBOR      PTCLDY    50  42  74 SW7       29.73F
BAD AXE        CLOUDY    53  42  65 SW7       29.68F
CARO           CLOUDY    53  37  56 S5        29.67F
DETROIT CITY   CLEAR     51  43  74 S6        29.74F
DETROIT        MOCLDY    50  42  74 S6        29.74F
FLINT          CLOUDY    57  38  48 S7        29.69F
GROSSE ILE     CLEAR     52  46  82 S7        29.73F
HILLSDALE      CLOUDY    52  38  57 S7        29.73F
HOWELL         CLOUDY    53  37  54 S6        29.70F

CITY           SKY/WX    TMP DP  RH WIND       PRES   REMARKS
JACKSON        LGT RAIN  52  42  69 S8        29.71F
LAMBERTVILLE   CLEAR     52  43  73 S6        29.75F
LANSING        LGT RAIN  55  37  50 W12       29.70F
LAPEER         FAIR      52  42  70 S7        29.70F
MASON          CLOUDY    53  40  61 S7        29.70F
MONROE         CLEAR     50  42  75 SW6       29.74F
MT. CLEMENS    CLEAR     45  45  99 S6        29.72F
PONTIAC        MOCLDY    52  42  69 S5        29.71F
PORT HOPE        N/A     55  42  61 VRB5      29.66F
PORT HURON     PTCLDY    46  43  87 S5        29.73F
TRI CITIES     CLOUDY    56  37  49 S9        29.66F
MIDLAND        CLOUDY    55  37  50 S5        29.64F
TROY           CLOUDY    53  43  70 S6        29.74F
SAGINAW HB     CLOUDY    54  37  54 S7        29.66F
$$
MIZ043>046-050>051-056>058-064>065-071>073-077>080-040600-
SOUTHWEST LOWER MICHIGAN

CITY           SKY/WX    TMP DP  RH WIND       PRES   REMARKS
BATTLE CREEK   CLOUDY    55  38  52 S12       29.70F
BENTON HARBOR  CLOUDY    58  41  53 S8        29.67F
BIG RAPIDS     CLOUDY    52  37  55 CALM      29.64F
COLDWATER      CLOUDY    55  42  63 S7        29.72F
FREMONT        DRIZZLE   50  39  66 CALM      29.64F
HOLLAND        LGT RAIN  56  43  61 SW6       29.67F
GRAND RAPIDS   CLOUDY    58  39  49 SW9       29.65F
IONIA          FAIR      54  37  52 S9        29.65F
KALAMAZOO      LGT RAIN  57  40  52 W13       29.71F
LUDINGTON      DRIZZLE   46  45  97 CALM      29.65F
MARSHALL       CLOUDY    56  37  50 S9        29.70F
MOUNT PLEASANT MOCLDY    54  37  52 W5        29.65S
MUSKEGON       LGT RAIN  50  41  71 SE8       29.64F
$$
MIZ016>042-040600-
NORTHERN LOWER MICHIGAN

CITY           SKY/WX    TMP DP  RH WIND       PRES   REMARKS
ALPENA         CLOUDY    50  42  74 N5        29.66F
BEAVER ISLAND  CLOUDY    44  43  98 W8        29.65S
BELLAIRE       CLOUDY    48  47  94 CALM      29.65F
CADILLAC       DRIZZLE   49  43  79 NW3       29.64S
CHARLEVOIX     CLOUDY    47  47  99 CALM      29.67F
FRANKFORT      DRIZZLE   46  44  95 CALM      29.65S
GAYLORD        CLOUDY    47  43  86 CALM      29.64F
HARBOR SPRINGS CLOUDY    46  45  97 CALM      29.65F
HOUGHTON LAKE  CLOUDY    50  41  71 E3        29.65F
MANISTEE       CLOUDY    46  41  81 NW7       29.65S
OSCODA         CLOUDY    49  39  68 NE7       29.66S
PELLSTON       CLOUDY    47  44  90 SE3       29.65F
ROGERS CITY    LGT RAIN  47  43  85 CALM      29.66F
TRAVERSE CITY  CLOUDY    49  45  86 CALM      29.64F
$$
MIZ007>008-015-040600-
EASTERN UPPER MICHIGAN

CITY           SKY/WX    TMP DP  RH WIND       PRES   REMARKS
KINROSS          N/A     46  46 100 CALM      29.64R
MACKINAC ISLAN LGT RAIN  46  46 100 SW6       29.64S
NEWBERRY       CLOUDY    44  43  97 N5        29.64S
S. S. MARIE    CLOUDY    48  45  89 CALM      29.63S
MUNISING         N/A     40  37  89 NW9       29.71R WCI  34
$$
MIZ004>006-011>014-085-040600-
CENTRAL UPPER MICHIGAN

CITY           SKY/WX    TMP DP  RH WIND       PRES   REMARKS
MANISTIQUE     DRIZZLE   42  40  93 NW10G18   29.66S
ESCANABA       PTCLDY    43  36  75 N9        29.71S
MENOMINEE      CLOUDY    46  42  86 N7        29.72R
SAWYER-GWINN   CLOUDY    40  35  83 N15G22    29.71S WCI  31
$$
MIZ001>003-009>011-084-040600-
WESTERN UPPER MICHIGAN

CITY           SKY/WX    TMP DP  RH WIND       PRES   REMARKS
IRON MOUNTAIN  PTCLDY    42  35  76 N17       29.72S
HOUGHTON       CLOUDY    42  35  76 N14G23    29.77S
COPPER HARBOR    N/A     40  38  93 N10       29.77R WCI  33
IRONWOOD         N/A     43  37  81 NE7       29.81R
$$

ABBREVIATIONS USED IN REMARKS
   TC - TEMPERATURE IN CELSIUS
  WCI - WIND CHILL INDEX
   HX - HEAT INDEX
  VSB - VISIBILITY





USA.gov is the U.S. government's official web portal to all federal, state and local government web resources and services.